When you browse on this site, cookies collect data to enhance your experience and personalize the content and advertising you see.
Visit our Privacy Policy to learn more. By continuing to use the site, you agree to this use of cookies and data.
  • In Romania
  • List of Countries
  • For 7 days
  • Water Temperature
  • Satellite Maps
  • Weather Map
  • Weather Widgets
  • user-avatar
    Login

    Hourly Weather Shusha

    Today, 17 January, Thursday

    Time Temperature Precipitation Wind Pressure Humidity
    00:00 +2°C° 0 mm 2 mps 649 mmHg 40%
    01:00 +2°C° 0 mm 2 mps 649 mmHg 40%
    02:00 +3°C° 0 mm 1 mps 649 mmHg 40%
    03:00 +4°C° 0 mm 1 mps 649 mmHg 28%
    04:00 +3°C° 0.3 mm 1 mps 649 mmHg 37%
    05:00 +3°C° 0.3 mm 1 mps 649 mmHg 47%
    06:00 +2°C° 0.3 mm 1 mps 648 mmHg 57%
    07:00 +2°C° 0.3 mm 1 mps 649 mmHg 63%
    08:00 +2°C° 0.3 mm 1 mps 649 mmHg 70%
    09:00 +2°C° 0 mm 1 mps 649 mmHg 69%
    10:00 +2°C° 0.3 mm 1 mps 649 mmHg 72%
    11:00 +1°C° 0.3 mm 2 mps 649 mmHg 75%
    12:00 +1°C° 0.3 mm 2 mps 649 mmHg 78%
    13:00 +1°C° 0.8 mm 2 mps 649 mmHg 81%
    14:00 -1°C° 0.8 mm 2 mps 649 mmHg 84%
    15:00 -1°C° 0 mm 2 mps 649 mmHg 87%
    16:00 +1°C° 0.8 mm 1 mps 649 mmHg 89%
    17:00 0°C° 0.8 mm 1 mps 650 mmHg 92%
    18:00 0°C° 0.8 mm 1 mps 651 mmHg 94%
    19:00 0°C° 0.8 mm 1 mps 651 mmHg 94%
    20:00 0°C° 0.8 mm 1 mps 652 mmHg 94%
    21:00 0°C° 0.8 mm 1 mps 653 mmHg 94%
    22:00 0°C° 0.8 mm 1 mps 653 mmHg 94%
    23:00 0°C° 0.8 mm 1 mps 654 mmHg 94%

    Tomorrow, 18 January, Friday

    Time Temperature Precipitation Wind Pressure Humidity
    00:00 -1°C° 0.8 mm 0 mps 655 mmHg 94%
    01:00 -2°C° 0.5 mm 0 mps 655 mmHg 93%
    02:00 -2°C° 0.5 mm 0 mps 655 mmHg 93%
    03:00 -2°C° 0.5 mm 0 mps 656 mmHg 93%
    04:00 -2°C° 0.5 mm 0 mps 656 mmHg 93%
    05:00 -2°C° 0.5 mm 0 mps 657 mmHg 93%
    06:00 -2°C° 0.5 mm 0 mps 657 mmHg 93%
    07:00 -2°C° 0.4 mm 0 mps 657 mmHg 92%
    08:00 -1°C° 0.4 mm 1 mps 658 mmHg 91%
    09:00 -1°C° 0.4 mm 1 mps 658 mmHg 89%
    10:00 0°C° 0.2 mm 1 mps 659 mmHg 87%
    11:00 0°C° 0.2 mm 1 mps 659 mmHg 85%
    12:00 -1°C° 0.2 mm 2 mps 659 mmHg 83%
    13:00 -1°C° 0.1 mm 2 mps 659 mmHg 83%
    14:00 -1°C° 0.1 mm 2 mps 659 mmHg 83%
    15:00 -1°C° 0.1 mm 2 mps 659 mmHg 82%
    16:00 0°C° 0.1 mm 1 mps 659 mmHg 84%
    17:00 0°C° 0.1 mm 1 mps 659 mmHg 86%
    18:00 -1°C° 0.1 mm 1 mps 660 mmHg 88%
    19:00 -1°C° 0.1 mm 1 mps 660 mmHg 87%
    20:00 -2°C° 0.1 mm 1 mps 660 mmHg 85%
    21:00 -2°C° 0.1 mm 1 mps 660 mmHg 84%
    22:00 -2°C° 0 mm 1 mps 660 mmHg 81%
    23:00 -3°C° 0 mm 1 mps 660 mmHg 78%

    Day after tomorrow, 19 January, Saturday

    Time Temperature Precipitation Wind Pressure Humidity
    00:00 -3°C° 0 mm 1 mps 660 mmHg 74%
    01:00 -5°C° 0 mm 2 mps 660 mmHg 71%
    02:00 -5°C° 0 mm 2 mps 660 mmHg 69%
    03:00 -5°C° 0 mm 2 mps 660 mmHg 66%
    04:00 -5°C° 0 mm 2 mps 660 mmHg 63%
    05:00 -5°C° 0 mm 2 mps 660 mmHg 61%
    06:00 -5°C° 0 mm 2 mps 659 mmHg 59%
    07:00 -2°C° 0 mm 1 mps 660 mmHg 59%
    08:00 -1°C° 0 mm 1 mps 660 mmHg 59%
    09:00 0°C° 0 mm 1 mps 660 mmHg 59%
    10:00 +1°C° 0 mm 1 mps 660 mmHg 60%
    11:00 +2°C° 0 mm 1 mps 660 mmHg 61%
    12:00 +3°C° 0 mm 1 mps 660 mmHg 61%
    13:00 +3°C° 0 mm 1 mps 660 mmHg 61%
    14:00 +3°C° 0 mm 1 mps 660 mmHg 61%
    15:00 +3°C° 0 mm 1 mps 659 mmHg 60%
    16:00 +2°C° 0 mm 1 mps 659 mmHg 61%
    17:00 +1°C° 0 mm 1 mps 659 mmHg 62%
    18:00 -1°C° 0 mm 1 mps 659 mmHg 63%
    19:00 -1°C° 0 mm 1 mps 659 mmHg 61%
    20:00 -1°C° 0 mm 1 mps 659 mmHg 60%
    21:00 -3°C° 0 mm 2 mps 659 mmHg 58%
    22:00 -3°C° 0 mm 2 mps 660 mmHg 56%
    23:00 -3°C° 0 mm 2 mps 660 mmHg 55%

    20 January, Sunday

    Time Temperature Precipitation Wind Pressure Humidity
    00:00 -3°C° 0 mm 2 mps 660 mmHg 53%
    01:00 -3°C° 0 mm 2 mps 660 mmHg 53%
    02:00 -3°C° 0 mm 2 mps 660 mmHg 52%
    03:00 -3°C° 0 mm 2 mps 660 mmHg 51%
    04:00 -4°C° 0 mm 2 mps 660 mmHg 50%
    05:00 -4°C° 0 mm 2 mps 660 mmHg 50%
    06:00 -4°C° 0 mm 2 mps 660 mmHg 49%
    07:00 -3°C° 0 mm 2 mps 661 mmHg 50%
    08:00 -3°C° 0 mm 2 mps 661 mmHg 51%
    09:00 0°C° 0 mm 1 mps 662 mmHg 51%
    10:00 +1°C° 0 mm 1 mps 662 mmHg 53%
    11:00 +2°C° 0 mm 1 mps 661 mmHg 55%
    12:00 +3°C° 0 mm 1 mps 661 mmHg 57%
    13:00 +3°C° 0 mm 1 mps 661 mmHg 56%
    14:00 +3°C° 0 mm 1 mps 661 mmHg 56%
    15:00 +3°C° 0 mm 1 mps 661 mmHg 55%
    16:00 +2°C° 0 mm 1 mps 661 mmHg 57%
    17:00 0°C° 0 mm 1 mps 660 mmHg 59%
    18:00 -1°C° 0 mm 1 mps 660 mmHg 61%
    19:00 -1°C° 0 mm 1 mps 661 mmHg 60%
    20:00 -1°C° 0 mm 1 mps 661 mmHg 59%
    21:00 -4°C° 0 mm 2 mps 661 mmHg 58%
    22:00 -4°C° 0 mm 2 mps 661 mmHg 57%
    23:00 -4°C° 0 mm 2 mps 661 mmHg 56%

    21 January, Monday

    Time Temperature Precipitation Wind Pressure Humidity
    00:00 -4°C° 0 mm 2 mps 661 mmHg 55%
    01:00 -4°C° 0 mm 2 mps 661 mmHg 55%
    02:00 -4°C° 0 mm 2 mps 661 mmHg 55%
    03:00 -5°C° 0 mm 2 mps 660 mmHg 55%
    04:00 -5°C° 0 mm 2 mps 660 mmHg 55%
    05:00 -3°C° 0 mm 1 mps 660 mmHg 55%
    06:00 -3°C° 0 mm 1 mps 660 mmHg 54%
    07:00 -2°C° 0 mm 1 mps 661 mmHg 54%
    08:00 -1°C° 0 mm 1 mps 661 mmHg 54%
    09:00 0°C° 0 mm 1 mps 661 mmHg 53%
    10:00 0°C° 0 mm 1 mps 661 mmHg 52%
    11:00 +1°C° 0 mm 1 mps 661 mmHg 50%
    12:00 +2°C° 0 mm 1 mps 660 mmHg 49%
    13:00 +2°C° 0 mm 1 mps 660 mmHg 50%
    14:00 +2°C° 0 mm 1 mps 659 mmHg 52%
    15:00 +2°C° 0 mm 1 mps 659 mmHg 54%
    16:00 +1°C° 0 mm 1 mps 659 mmHg 57%
    17:00 -1°C° 0 mm 1 mps 658 mmHg 60%
    18:00 -2°C° 0 mm 1 mps 658 mmHg 63%
    19:00 -2°C° 0 mm 1 mps 658 mmHg 61%
    20:00 -2°C° 0 mm 1 mps 658 mmHg 60%
    21:00 -4°C° 0 mm 2 mps 658 mmHg 58%
    22:00 -4°C° 0 mm 2 mps 658 mmHg 56%
    23:00 -4°C° 0 mm 2 mps 658 mmHg 53%

    22 January, Tuesday

    Time Temperature Precipitation Wind Pressure Humidity
    00:00 -4°C° 0 mm 2 mps 658 mmHg 51%
    01:00 -4°C° 0 mm 2 mps 658 mmHg 49%
    02:00 -4°C° 0 mm 2 mps 658 mmHg 48%
    03:00 -4°C° 0 mm 2 mps 657 mmHg 46%
    04:00 -5°C° 0 mm 2 mps 657 mmHg 46%
    05:00 -5°C° 0 mm 2 mps 657 mmHg 45%
    06:00 -5°C° 0 mm 2 mps 657 mmHg 45%
    07:00 -4°C° 0 mm 2 mps 657 mmHg 45%
    08:00 -2°C° 0 mm 2 mps 658 mmHg 46%
    09:00 -1°C° 0 mm 2 mps 658 mmHg 46%
    10:00 +1°C° 0 mm 2 mps 658 mmHg 48%
    11:00 +3°C° 0 mm 1 mps 658 mmHg 50%
    12:00 +5°C° 0 mm 1 mps 658 mmHg 53%
    13:00 +5°C° 0 mm 1 mps 658 mmHg 50%
    14:00 +5°C° 0 mm 1 mps 658 mmHg 47%
    15:00 +5°C° 0 mm 1 mps 658 mmHg 45%
    16:00 +4°C° 0 mm 1 mps 658 mmHg 46%
    17:00 +2°C° 0 mm 1 mps 658 mmHg 47%
    18:00 0°C° 0 mm 1 mps 658 mmHg 49%
    19:00 0°C° 0 mm 1 mps 659 mmHg 49%
    20:00 0°C° 0 mm 1 mps 659 mmHg 49%
    21:00 0°C° 0 mm 1 mps 659 mmHg 50%
    22:00 -3°C° 0 mm 2 mps 659 mmHg 50%
    23:00 -3°C° 0 mm 2 mps 659 mmHg 50%
    Show more